[[{"header":{"parameterUnit":"m.s-1","parameterCategory":1,"la1":30.2991,"la2":30.254,"lo1":-89.0895,"lo2":-89.0444,"dy":0.0017,"dx":0.0017,"nx":28,"ny":28,"refTime":"2026-02-12T03:00:00:Z","depth":0,"parameterNumber":2,"parameterNumberName":"U-component_of_WINDS"},"data":[0,0,0,0,0,0,0,0,0,0,0,0,0,0,0,0,0,0,0,0,0,0,0,0,0,0,0,0,0,0,0,0,0,0,0,0,0,0,0,0,0,0,0,0,0,0,0,0,0,0,0,0,0,0,0,0,0,0,-1.8779,-1.878,0,-1.8844,-1.8845,-1.8846,-1.8825,-1.8823,-1.8822,-1.882,-1.8889,-1.8892,-1.8895,0,0,0,0,0,0,0,0,0,0,0,0,0,-1.864,-1.8642,-1.8779,-1.878,-1.8781,-1.8844,-1.8845,-1.8846,-1.8825,-1.8823,-1.8821,-1.882,-1.8888,-1.8892,-1.8896,0,0,0,0,0,0,0,0,0,0,0,0,0,-1.8702,-1.8643,-1.8779,-1.8778,-1.8778,-1.8844,-1.8845,-1.8846,-1.8825,-1.8823,-1.8821,-1.8819,-1.8887,-1.8892,-1.8896,-1.8967,0,0,-1.8911,-1.8913,0,0,0,0,0,0,0,0,-1.8698,-1.8707,-1.8777,-1.8778,-1.8779,-1.8824,-1.8821,-1.8887,-1.8826,-1.8807,-1.882,-1.8818,-1.8869,-1.8875,-1.8892,-1.8971,-1.8974,-1.8911,-1.8914,-1.8916,-1.8917,0,0,0,0,0,0,0,-1.8694,-1.8704,-1.8805,-1.8778,-1.8779,-1.8775,-1.8781,-1.8833,-1.8849,-1.8809,-1.8807,-1.8815,-1.8869,-1.8888,-1.8894,-1.8975,-1.8911,-1.8915,-1.8918,-1.892,-1.9116,-1.9119,0,0,0,0,0,0,-1.8689,-1.8701,-1.8803,-1.8807,-1.8732,-1.8779,-1.8786,-1.8812,-1.8849,-1.8852,-1.8817,-1.8814,-1.8881,-1.8888,-1.8896,-1.8983,-1.8916,-1.892,-1.8923,-1.9114,-1.9117,-1.9119,0,0,0,0,0,0,-1.8686,-1.8698,-1.88,-1.8753,-1.8766,-1.8784,-1.8812,-1.8814,-1.8832,-1.8855,-1.8858,-1.8833,-1.8879,-1.8889,-1.895,-1.8985,-1.8922,-1.8927,-1.9111,-1.9115,-1.9118,-1.9156,0,0,0,0,0,0,-1.8682,-1.8697,-1.8724,-1.8754,-1.8769,-1.8852,-1.8814,-1.8817,-1.884,-1.8837,-1.887,-1.8874,-1.8879,-1.8943,-1.8955,-1.899,-1.893,-1.9108,-1.9113,-1.9117,-1.9151,-1.916,-1.9168,0,0,0,0,0,-1.8677,-1.8732,-1.8725,-1.8737,-1.8802,-1.8854,-1.8862,-1.8866,-1.8843,-1.887,-1.8885,-1.8873,-1.8979,-1.8949,-1.8962,-1.9,-1.9106,-1.9111,-1.9117,-1.9148,-1.9158,-1.9167,0,0,0,0,0,0,-1.8705,-1.8736,-1.8729,-1.8794,-1.8822,-1.885,-1.8884,-1.8877,-1.8911,-1.8907,-1.8911,-1.8919,-1.8981,-1.8996,-1.8963,-1.9071,-1.9039,-1.9048,-1.9059,-1.9069,-1.9077,-1.9072,-1.8934,0,0,0,0,0,-1.8719,-1.8758,-1.8783,-1.8839,-1.8853,-1.8866,-1.8889,-1.889,-1.8918,-1.893,-1.8949,-1.8978,-1.9018,-1.9045,-1.9083,-1.9154,-1.9162,-1.9186,-1.9194,-1.9201,-1.9208,-1.9248,-1.926,-1.9137,-1.9137,-1.9137,0,0,-1.8748,-1.8769,-1.8794,-1.8845,-1.8866,-1.8907,-1.8876,-1.8921,-1.8952,-1.8937,-1.8995,-1.9011,-1.9044,-1.911,-1.914,-1.9125,-1.9244,-1.9208,-1.9213,-1.9216,-1.9255,-1.9266,-1.9277,-1.9141,-1.914,-1.914,0,0,-1.8821,-1.8841,-1.889,-1.8913,-1.8945,-1.8954,-1.8966,-1.8996,-1.9006,-1.9064,-1.9054,-1.9092,-1.9161,-1.9185,-1.9206,-1.9291,-1.9282,-1.9304,-1.9346,-1.9385,-1.9394,-1.9403,-1.9434,-1.9445,-1.9311,-1.9311,-1.9311,0,-1.8853,-1.8914,-1.8917,-1.8963,-1.8986,-1.8975,-1.9025,-1.9047,-1.909,-1.9107,-1.9089,-1.9176,-1.9197,-1.927,-1.9291,-1.9308,-1.9323,-1.9299,-1.9393,-1.9401,-1.9409,-1.9439,-1.9451,-1.9313,-1.9313,-1.9313,-1.9312,0,-1.8952,-1.8995,-1.9031,-1.9073,-1.9101,-1.9149,-1.916,-1.9187,-1.9186,-1.9198,-1.9258,-1.9284,-1.9327,-1.9345,-1.9344,-1.9418,-1.9407,-1.9391,-1.9359,-1.9423,-1.9451,-1.9463,-1.9317,-1.9316,-1.9315,-1.9314,0,0,-1.9044,-1.9088,-1.9101,-1.9121,-1.9157,-1.919,-1.9239,-1.9281,-1.9305,-1.9336,-1.9377,-1.9437,-1.9422,-1.9447,-1.9449,-1.9483,-1.955,-1.9463,-1.9464,-1.9479,-1.9635,-1.9646,-1.9659,-1.9544,-1.9546,-1.9548,-1.9632,0,-1.9121,-1.9204,-1.9209,-1.9286,-1.9326,-1.9317,-1.9359,-1.9386,-1.9399,-1.9436,-1.945,-1.9492,-1.947,-1.9484,-1.9518,-1.9535,-1.9581,-1.9529,-1.9584,-1.9586,-1.9575,-1.9674,-1.9686,-1.9764,-1.9643,-1.9645,-1.9646,0,-1.9221,-1.9255,-1.9335,-1.9367,-1.9384,-1.9422,-1.9462,-1.9497,-1.9529,-1.9535,-1.9563,-1.9561,-1.9612,-1.9579,-1.965,-1.9614,-1.9637,-1.9649,-1.9652,-1.9657,-1.9619,-1.9682,-1.9789,-1.98,-1.9663,-1.9662,-1.9661,0,-1.928,-1.9346,-1.9403,-1.942,-1.9458,-1.9486,-1.9503,-1.9532,-1.9558,-1.9593,-1.961,-1.9652,-1.9674,-1.9707,-1.9716,-1.9691,-1.9788,-1.9755,-1.9796,-1.9796,-1.9816,-1.9815,-1.9928,-1.9831,-1.9831,-1.9831,-1.9831,0,-1.9365,-1.9415,-1.943,-1.9465,-1.9522,-1.9528,-1.9583,-1.9599,-1.9626,-1.9665,-1.966,-1.9697,-1.9707,-1.9746,-1.9755,-1.9813,-1.9823,-1.9831,-1.9833,-1.9831,-1.983,-1.9846,-1.9841,-1.9834,-1.9833,-1.9833,-1.9832,0,-1.944,-1.9452,-1.9514,-1.9546,-1.9555,-1.9595,-1.9622,-1.9657,-1.9669,-1.9719,-1.9731,-1.9751,-1.9797,-1.981,-1.9865,-1.9871,-1.994,-1.9936,-1.9929,-1.9929,-1.9969,-1.9965,-2.0097,-2.0115,-2.0006,-2.0007,-2.0008,0,-1.9493,-1.9531,-1.9567,-1.9593,-1.9611,-1.9652,-1.9679,-1.9687,-1.9715,-1.9755,-1.9785,-1.983,-1.9867,-1.9942,-1.9962,-2.0005,-2.0002,-2.0045,-2.0009,-2.0007,-2.0003,-2.0001,-2.0005,-2.0052,-2.0053,-2.0054,-2.0055,0,-1.9586,-1.9591,-1.9629,-1.9669,-1.9701,-1.9733,-1.9764,-1.9786,-1.9799,-1.983,-1.9877,-1.9906,-1.9963,-2.0009,-2.0053,-2.0072,-2.0066,-2.0067,-2.0079,-2.0078,-2.0072,-2.0076,-1.9948,-2.0063,-2.0063,-2.0062,-2.0062,-2.0061,-1.9652,-1.9686,-1.9717,-1.976,-1.9784,-1.9814,-1.9848,-1.9865,-1.9904,-1.9951,-1.9954,-2.0005,-2.0038,-2.0096,-2.0118,-2.0159,-2.0146,-2.0163,-2.0168,-2.0172,-2.0175,-2.0065,-2.0167,-2.0167,-2.0167,-2.0167,-2.0166,0,-1.9746,-1.9766,-1.9805,-1.9849,-1.9883,-1.9874,-1.9909,-1.9938,-1.9983,-2.0014,-2.005,-2.0105,-2.015,-2.0174,-2.0219,-2.0248,-2.0247,-2.026,-2.0257,-2.0262,-2.0184,-2.0169,-2.026,-2.026,-2.026,-2.026,-2.026,-2.026,-1.9798,-1.9855,-1.9864,-1.9934,-1.9954,-2.0004,-2.0025,-2.0052,-2.0077,-2.0138,-2.0176,-2.0191,-2.022,-2.0267,-2.0308,-2.0315,-2.0332,-2.0346,-2.0351,-2.0277,-2.0268,-2.0258,-2.0245,-2.035,-2.035,-2.0426,-2.0427,-2.0427]},{"header":{"parameterUnit":"m.s-1","parameterCategory":1,"la1":30.2991,"la2":30.254,"lo1":-89.0895,"lo2":-89.0444,"dy":0.0017,"dx":0.0017,"nx":28,"ny":28,"refTime":"2026-02-12T03:00:00:Z","depth":0,"parameterNumber":3,"parameterNumberName":"V-component_of_WINDS"},"data":[0,0,0,0,0,0,0,0,0,0,0,0,0,0,0,0,0,0,0,0,0,0,0,0,0,0,0,0,0,0,0,0,0,0,0,0,0,0,0,0,0,0,0,0,0,0,0,0,0,0,0,0,0,0,0,0,0,0,0.4315,0.4315,0,0.4305,0.4305,0.4305,0.4328,0.4329,0.433,0.4331,0.4316,0.4315,0.4314,0,0,0,0,0,0,0,0,0,0,0,0,0,0.4352,0.4351,0.4315,0.4315,0.4315,0.4305,0.4305,0.4305,0.4328,0.4329,0.433,0.4331,0.4317,0.4315,0.4314,0,0,0,0,0,0,0,0,0,0,0,0,0,0.4338,0.4351,0.4315,0.4326,0.4326,0.4305,0.4305,0.4305,0.4328,0.4329,0.433,0.4331,0.4317,0.4316,0.4314,0.4281,0,0,0.4309,0.4308,0,0,0,0,0,0,0,0,0.4339,0.4337,0.4324,0.4325,0.4326,0.4319,0.4313,0.4297,0.4328,0.4327,0.4331,0.4332,0.4316,0.4315,0.431,0.4281,0.428,0.4309,0.4308,0.4307,0.4307,0,0,0,0,0,0,0,0.434,0.4337,0.4311,0.4324,0.4325,0.433,0.4329,0.431,0.4315,0.4327,0.4329,0.4328,0.4317,0.4312,0.431,0.428,0.4309,0.4307,0.4306,0.4306,0.4224,0.4223,0,0,0,0,0,0,0.434,0.4338,0.4312,0.4311,0.4335,0.4328,0.4327,0.432,0.4316,0.4316,0.4327,0.4329,0.4314,0.4312,0.431,0.4271,0.4307,0.4306,0.4305,0.4225,0.4224,0.4222,0,0,0,0,0,0,0.4341,0.4337,0.4312,0.4325,0.4322,0.4326,0.4318,0.4319,0.4314,0.4315,0.4316,0.4321,0.4315,0.4312,0.4289,0.4271,0.4305,0.4303,0.4226,0.4225,0.4223,0.4194,0,0,0,0,0,0,0.4342,0.4337,0.4326,0.4325,0.4321,0.4292,0.4317,0.4318,0.4312,0.4315,0.431,0.431,0.4315,0.4291,0.4287,0.427,0.4302,0.4228,0.4226,0.4223,0.4197,0.4192,0.4188,0,0,0,0,0,0.4343,0.4317,0.4325,0.4322,0.4307,0.4291,0.4289,0.4297,0.431,0.4298,0.4299,0.431,0.4274,0.4288,0.4284,0.4266,0.4229,0.4226,0.4224,0.4199,0.4193,0.4188,0,0,0,0,0,0,0.4314,0.4317,0.4326,0.4299,0.4295,0.4295,0.4279,0.429,0.428,0.4283,0.4292,0.429,0.4265,0.4263,0.4279,0.4235,0.4254,0.425,0.4236,0.4231,0.4226,0.4226,0.4301,0,0,0,0,0,0.4305,0.4293,0.4296,0.4272,0.4269,0.4275,0.4268,0.4275,0.427,0.4268,0.4267,0.4261,0.4248,0.4239,0.4228,0.4197,0.4196,0.4183,0.4178,0.4174,0.417,0.4154,0.4148,0.4213,0.4213,0.4213,0,0,0.4285,0.4286,0.4277,0.4266,0.4264,0.425,0.4273,0.4257,0.4247,0.4265,0.4243,0.4243,0.4236,0.421,0.4198,0.4207,0.4153,0.4171,0.4168,0.4166,0.4151,0.4145,0.4139,0.4211,0.4212,0.4212,0,0,0.4243,0.4242,0.4222,0.422,0.4216,0.422,0.4216,0.4214,0.4215,0.4194,0.4207,0.4195,0.4173,0.4168,0.4163,0.412,0.413,0.4116,0.4091,0.4075,0.407,0.4065,0.405,0.4044,0.4113,0.4112,0.4112,0,0.4218,0.4199,0.421,0.4194,0.4189,0.4207,0.4186,0.4183,0.4175,0.4171,0.4182,0.4156,0.4153,0.4125,0.4115,0.411,0.4104,0.4116,0.407,0.4066,0.4061,0.4047,0.4041,0.4111,0.4111,0.4111,0.4111,0,0.4169,0.4156,0.4141,0.4134,0.4127,0.4109,0.4117,0.4108,0.4116,0.4119,0.4097,0.4095,0.4083,0.4077,0.4084,0.405,0.4056,0.4069,0.4088,0.4053,0.4039,0.4034,0.4108,0.4109,0.4109,0.411,0,0,0.4107,0.4108,0.4102,0.41,0.4098,0.4087,0.407,0.4061,0.4053,0.4047,0.4032,0.4014,0.4026,0.402,0.4027,0.4013,0.3979,0.4027,0.4027,0.4017,0.3942,0.3932,0.3925,0.3986,0.3985,0.3984,0.3942,0,0.4064,0.4036,0.4046,0.4016,0.4004,0.4021,0.4006,0.4003,0.4005,0.3995,0.3997,0.3984,0.4001,0.3997,0.3985,0.3986,0.3964,0.3989,0.3971,0.397,0.3971,0.3918,0.3907,0.3867,0.3937,0.3936,0.3935,0,0.401,0.4004,0.3974,0.3975,0.397,0.3957,0.3949,0.3939,0.3936,0.3938,0.3933,0.3942,0.3925,0.3945,0.3921,0.3938,0.3931,0.3931,0.393,0.3927,0.395,0.3913,0.3855,0.3848,0.3927,0.3928,0.3928,0,0.3967,0.3951,0.3931,0.3929,0.393,0.392,0.3919,0.3918,0.3911,0.3904,0.39,0.3891,0.3885,0.3878,0.3884,0.3899,0.3859,0.388,0.3859,0.3859,0.3849,0.3849,0.3788,0.3846,0.3846,0.3847,0.3847,0,0.3918,0.3898,0.3912,0.3899,0.3878,0.389,0.3868,0.387,0.3868,0.3856,0.387,0.3858,0.3868,0.3857,0.3862,0.3841,0.3838,0.3839,0.384,0.3837,0.3837,0.3832,0.3835,0.3845,0.3845,0.3846,0.3846,0,0.3865,0.3873,0.3853,0.3856,0.3857,0.3841,0.3843,0.3831,0.3836,0.382,0.3817,0.3823,0.381,0.3817,0.3803,0.3807,0.3779,0.3785,0.378,0.3781,0.3761,0.3762,0.3693,0.3684,0.3749,0.3749,0.3748,0,0.3832,0.3818,0.3821,0.3814,0.3813,0.3802,0.3797,0.3808,0.3801,0.3798,0.3786,0.3775,0.3767,0.3746,0.3748,0.3738,0.3743,0.3719,0.3741,0.3739,0.3742,0.3742,0.374,0.3714,0.3714,0.3713,0.3712,0,0.3774,0.3779,0.3771,0.3765,0.3758,0.3753,0.3749,0.3742,0.3754,0.3746,0.3734,0.3728,0.3715,0.3703,0.3695,0.3694,0.3704,0.3706,0.3701,0.3696,0.3694,0.3695,0.3767,0.3707,0.3708,0.3708,0.3708,0.3708,0.373,0.3718,0.3718,0.3709,0.3708,0.3704,0.3693,0.3697,0.3688,0.3679,0.3687,0.3672,0.367,0.366,0.3658,0.3646,0.3655,0.3647,0.3645,0.3643,0.364,0.3698,0.3645,0.3645,0.3645,0.3645,0.3645,0,0.3671,0.3673,0.3664,0.3659,0.3652,0.3665,0.3662,0.3654,0.3642,0.364,0.3632,0.3618,0.3608,0.361,0.3601,0.3591,0.3596,0.3588,0.3588,0.3587,0.3633,0.3638,0.3584,0.3584,0.3584,0.3584,0.3584,0.3584,0.364,0.3621,0.3626,0.3607,0.3608,0.3596,0.3593,0.3589,0.3588,0.3572,0.3564,0.3567,0.3566,0.3557,0.3548,0.3549,0.3544,0.3534,0.3537,0.3578,0.3584,0.359,0.3595,0.3533,0.3533,0.3492,0.3492,0.3492]}]]